DECAYED

STARLINK-4562, 53689 (Decayed)

Orbit data source: Space-Track

STARLINK-4562, 53689 was a payload satellite owned by SpaceX/Seattle (US) in LEO that was launched on Wed, 31 Aug 2022 UTC via an FALCON 9 launch vehicle from the Air Force Western Test Range (AFWTR). Payload-class satellites include a variety of spacecraft equipped with specific instruments for various scientific and technological missions. These include communications satellites like Starlink; space stations such as the ISS; scientific satellites like the Hubble; Earth observation satellites from companies like Planet Labs, Umbra, and HawkEye 360; GPS; miniature CubeSats for education and research; and military/defense satellites.

Loading next visibility...
Identifier
53689, 2022-105AT
Orbit
Decayed
Country
Flag of USUS
Related business
Manufacturer
SpaceX/Seattle
Mission
Decayed Commercial Communications
Bus & Motor
STARLINK, Unknown motor
Mass
300 kg wet, ~290 kg dry
Launch date (UTC)
2022-08-31 (4 years ago)
Launch vehicle
FALCON 9
Launch site
Air Force Western Test Range (AFWTR)
Object type
Payload
Rocket body
Debris
Shape & HBR
Box + 1 Pan, 10.1 m
Radar Cross Section
13.562 m², Large (>1 m²)

Expand to show TLE details & history
Last TLE update: 1 year ago

TLE from 1 year ago
0 STARLINK-4562
1 53689U 22105AT  25113.61914212  .13756965  27859-5  29485-3 0  9998
2 53689  97.6269   2.6802 0010247 234.3381 150.2637 16.46111521145921
Epoch: 2025-04-23T14:51Z
TLE epoch observation values (Epoch: 2025-04-23T14:51:33.879Z)
Latitude
24.4567°
Longitude
-75.58477°
Altitude
158.648 km
Speed
7.81 km/s
True Right ascension
23h 56m 50s
True Declination
24° 18' 56"
Sunlit
Object was in daylight at epoch
Visualization orbit readout
Latitude
Unknown
Longitude
Unknown
Altitude
Unknown
Speed
Unknown
Apparent Right ascension
Unknown
Apparent Declination
Unknown
Sunlit
N/A
Visualization observer readout
Local Sidereal Time
21:25:54
Azimuth
Unknown
Elevation
Unknown
Doppler factor
Unknown
Orbital elements
Apogee altitude
153.091 km
Perigee altitude
139.72 km
Semi-major axis
6,524.542 km
Eccentricity
0.00102
Inclination
97.6269°
RAAN
2.6802°
Arg. of periapsis
234.3381°
True anomaly
150.32188°
Mean anomaly
150.2637°
Eccentric anomaly
150.2928°
Mean motion
4.1183 °/min
Orbital period
87.41 mins
BSTAR
0.00029485
Loading maneuver chart data...
Computing Atmospheric mass density...
Loading historical data...
Loading historical data...
Loading historical data...
Loading historical data...
Loading historical data...
Loading historical data...
Loading historical data...

Documentation

Showing up to 5 results
|